Total_Precipitation_Accumulation
1.76 1.88 1.84 2.04 2.06 2.15 2.35 2.68 2.74 2.90 2.95 2.92 2.60 2.26 2.14 2.00 1.82 1.92 2.11 2.04 1.94 2.14 2.59 2.97 2.87 2.61 2.31 2.14 1.86 1.64 1.50 1.44 1.28 1.01 0.92 1.00 0.98 0.91 0.83 0.79 0.73 0.67 0.56
2.29 2.48 2.48 2.51 2.33 2.32 2.58 2.83 2.97 3.42 3.34 3.23 2.76 2.48 2.24 2.16 1.95 1.88 2.12 2.28 1.96 1.92 2.24 2.86 3.15 2.91 2.60 2.35 2.11 1.86 1.67 1.56 1.44 1.09 0.88 0.91 0.96 0.95 0.89 0.85 0.75 0.63 0.52
2.64 2.79 2.77 2.68 2.65 2.64 2.81 3.00 3.17 3.31 3.10 2.99 2.86 2.65 2.42 2.22 1.94 1.92 1.98 2.18 2.06 1.94 2.10 2.41 2.82 2.86 2.76 2.58 2.44 2.18 1.83 1.60 1.40 1.15 0.88 0.81 0.83 0.86 0.86 0.86 0.78 0.62 0.45
2.84 3.10 2.93 2.81 3.08 2.94 3.08 3.45 3.46 3.44 3.37 3.18 3.03 2.78 2.55 2.33 1.89 1.80 1.78 2.02 2.31 2.00 2.06 2.33 2.45 2.46 2.72 2.84 2.79 2.63 2.29 1.86 1.47 1.22 1.01 0.95 0.95 0.92 0.88 0.82 0.76 0.60 0.43
2.77 3.01 2.88 2.91 3.00 3.26 3.32 3.11 3.57 3.60 3.49 3.34 2.82 2.61 2.32 2.10 1.91 1.72 1.75 1.76 2.03 1.94 1.95 2.05 2.17 2.25 2.67 3.20 3.31 3.22 3.00 2.57 2.02 1.68 1.61 1.55 1.49 1.30 1.09 0.92 0.78 0.63 0.46
2.65 3.01 2.83 2.79 2.89 3.18 3.19 3.18 3.49 3.47 3.22 3.24 2.67 2.35 2.19 1.83 1.81 1.80 1.58 1.58 1.67 1.49 1.62 1.85 2.23 1.94 2.10 2.45 2.92 3.31 3.45 3.37 2.94 2.79 2.83 2.58 2.35 1.92 1.41 1.11 0.89 0.75 0.61
2.50 2.88 2.65 2.89 2.81 2.90 2.94 2.96 3.20 3.28 2.97 3.04 3.01 2.55 2.00 1.63 1.59 1.56 1.55 1.58 1.45 1.53 1.89 2.17 2.29 2.28 2.06 1.85 2.00 2.53 3.24 3.65 3.41 3.14 3.26 3.31 3.21 2.60 1.82 1.39 1.08 0.86 0.73
2.32 2.47 2.63 2.51 2.56 2.71 2.74 2.76 2.97 2.93 2.59 2.71 2.92 2.93 2.32 1.99 1.57 1.21 1.48 1.53 1.47 1.68 1.80 1.87 2.17 2.42 2.34 2.44 1.96 1.81 2.43 3.17 3.45 3.28 3.12 3.31 3.35 2.76 2.08 1.79 1.43 1.09 0.93
2.16 2.23 2.36 2.35 2.36 2.28 2.47 2.63 2.55 2.56 2.43 2.37 2.55 2.89 2.58 2.15 1.75 1.32 1.17 1.25 1.45 1.65 1.67 1.80 1.82 1.94 2.01 2.43 2.44 2.00 1.84 2.10 2.78 3.42 3.45 3.29 3.15 2.67 2.25 2.06 1.84 1.46 1.22
1.95 1.96 2.00 1.99 2.03 2.05 2.29 2.10 2.08 2.31 2.41 2.28 2.35 2.35 2.34 2.36 2.23 1.65 1.23 1.16 1.36 1.48 1.48 1.44 1.57 1.75 1.82 2.03 2.18 2.01 1.75 1.63 1.95 2.67 3.21 3.27 3.01 2.53 2.26 2.26 2.40 2.16 1.66
1.86 1.76 1.82 1.82 1.82 1.82 1.92 1.93 2.16 2.17 2.21 2.20 2.19 2.17 2.26 2.26 2.14 1.95 1.58 1.42 1.37 1.20 1.22 1.30 1.43 1.62 1.78 1.89 2.06 1.87 1.86 1.64 1.66 1.84 2.27 2.67 2.79 2.68 2.40 2.40 2.77 2.89 2.53
1.65 1.66 1.70 1.75 1.71 1.71 1.83 1.87 1.92 1.92 1.99 2.04 2.00 1.97 2.14 2.07 1.99 2.07 1.78 1.61 1.55 1.28 1.27 1.30 1.33 1.47 1.56 1.63 1.51 1.60 1.62 1.43 1.38 1.37 1.42 1.73 2.07 2.26 2.30 2.44 2.80 3.06 3.04
1.41 1.41 1.51 1.57 1.53 1.56 1.69 1.77 1.72 1.78 1.87 1.91 1.87 1.89 1.96 1.89 1.88 2.02 2.07 1.87 1.70 1.41 1.40 1.35 1.27 1.40 1.36 1.55 1.52 1.33 1.16 1.09 0.99 0.97 1.01 1.15 1.34 1.54 1.73 2.00 2.42 2.76 2.93
1.29 1.34 1.42 1.40 1.41 1.45 1.47 1.70 1.74 1.78 1.85 1.85 1.76 1.99 1.93 1.73 1.77 1.91 2.11 2.28 2.13 1.77 1.67 1.52 1.33 1.24 1.31 1.38 1.35 1.14 0.92 0.84 0.78 0.75 0.74 0.81 0.95 1.07 1.20 1.38 1.67 1.92 2.13
1.51 1.52 1.48 1.47 1.51 1.58 1.70 1.89 1.95 1.92 1.94 1.91 1.95 2.07 1.91 1.72 1.70 1.75 2.06 2.33 2.48 2.19 1.89 1.67 1.50 1.20 1.21 1.16 1.16 1.06 1.03 0.86 0.67 0.64 0.64 0.60 0.66 0.76 0.87 0.97 1.08 1.22 1.33
1.69 1.66 1.63 1.57 1.56 1.63 1.82 1.96 1.98 1.95 2.00 2.02 2.04 2.14 2.11 1.94 1.93 1.92 2.09 2.29 2.46 2.49 2.10 1.72 1.65 1.37 1.27 1.09 1.11 1.02 0.94 0.90 0.68 0.58 0.58 0.55 0.56 0.59 0.64 0.72 0.79 0.86 0.96
1.62 1.54 1.49 1.47 1.48 1.53 1.59 1.65 1.63 1.66 1.66 1.74 1.73 1.87 1.99 2.11 2.09 2.06 2.14 2.20 2.37 2.54 2.21 2.00 2.06 1.91 1.68 1.44 1.27 1.11 0.95 0.91 0.78 0.66 0.57 0.58 0.59 0.60 0.63 0.67 0.69 0.74 0.79
1.33 1.24 1.26 1.28 1.27 1.24 1.26 1.26 1.26 1.35 1.48 1.60 1.72 1.81 1.73 1.78 1.83 1.88 1.98 2.11 2.28 2.51 2.39 2.34 2.44 2.40 2.14 1.77 1.59 1.41 1.11 0.96 0.88 0.83 0.69 0.59 0.59 0.60 0.61 0.65 0.68 0.70 0.73
1.01 0.98 1.05 1.09 1.07 1.05 1.03 1.05 1.14 1.23 1.35 1.46 1.55 1.54 1.46 1.51 1.55 1.68 1.74 1.88 2.07 2.32 2.42 2.46 2.58 2.55 2.32 2.07 1.95 1.63 1.41 1.34 1.09 1.02 0.90 0.72 0.61 0.61 0.65 0.67 0.71 0.76 0.75
0.90 0.93 0.99 1.01 1.03 1.06 1.13 1.26 1.33 1.36 1.39 1.37 1.31 1.27 1.23 1.30 1.39 1.54 1.63 1.67 1.80 2.01 2.17 2.32 2.52 2.55 2.41 2.33 2.27 1.95 1.73 1.63 1.42 1.18 1.11 0.91 0.80 0.72 0.71 0.71 0.73 0.79 0.85
0.86 0.95 1.05 1.10 1.15 1.13 1.07 1.22 1.36 1.34 1.35 1.32 1.24 1.09 1.01 1.06 1.13 1.24 1.22 1.40 1.59 1.79 1.92 2.09 2.33 2.55 2.41 2.37 2.24 2.09 1.92 1.85 1.73 1.49 1.42 1.15 0.98 0.84 0.70 0.67 0.70 0.78 0.93
1.01 1.02 1.01 1.05 1.03 0.85 0.91 1.06 1.19 1.24 1.31 1.31 1.19 1.05 0.94 0.93 0.96 1.04 1.08 1.14 1.30 1.50 1.69 1.98 2.18 2.35 2.23 2.16 2.25 2.26 2.20 2.00 1.90 1.76 1.86 1.74 1.50 1.34 1.07 0.82 0.78 0.80 0.93
1.04 1.08 1.06 1.04 1.01 0.96 0.99 0.99 0.98 1.09 1.18 1.17 1.18 1.16 0.96 0.82 0.94 0.95 1.00 0.99 1.07 1.17 1.34 1.63 1.83 1.93 2.07 2.06 2.28 2.39 2.50 2.39 2.24 2.12 2.29 2.30 2.14 1.97 1.37 1.15 1.09 0.91 0.88
1.10 1.12 1.12 1.08 1.14 1.12 1.06 0.94 0.94 0.96 1.06 1.10 1.08 1.04 1.03 1.02 0.98 0.95 1.00 1.01 0.92 0.92 1.01 1.06 1.24 1.54 2.04 2.32 2.33 2.39 2.62 2.61 2.43 2.33 2.42 2.55 2.33 2.24 1.80 1.36 1.13 0.87 0.78
1.12 1.11 1.10 1.05 1.06 1.13 1.07 0.95 0.91 0.92 1.05 1.11 1.11 1.05 0.98 0.99 1.01 0.91 0.94 0.96 0.92 0.88 0.89 1.00 1.11 1.33 1.60 1.92 2.11 2.18 2.29 2.44 2.52 2.48 2.47 2.59 2.51 2.40 2.39 2.08 1.50 1.12 0.84
1.24 1.20 1.14 1.08 1.06 1.09 1.02 0.82 0.79 0.82 0.94 1.01 1.09 1.03 0.91 0.83 0.83 0.80 0.88 0.95 0.90 0.87 0.92 0.96 0.99 1.09 1.24 1.42 1.50 1.49 1.61 1.78 1.97 2.13 2.08 2.28 2.52 2.60 2.80 2.75 2.24 1.64 1.23